Location: Bieujac
(44.5398°N, 0.1549°W)
Time: 02:55:25
(UTC+00:00)

Cosmos 1400 Rocket - Pass Details

Date: 17 November 2019
Orbit: 522 x 568 km, 81.2° (Epoch: 13 December)

Event Time Altitude Azimuth Distance (km) Brightness Sun altitude
Rises 05:45:55 0° 353° (N) 2,763 6.2 -13.1°
Reaches altitude 10° 05:48:10 10° 358° (N) 1,856 5.4 -12.7°
Maximum altitude 05:52:10 54° 76° (ENE) 681 3.6 -12.0°
Drops below altitude 10° 05:56:06 10° 155° (SSE) 1,815 6.1 -11.3°
Sets 05:58:16 0° 160° (SSE) 2,694 6.9 -10.9°
